Regional Weather Roundup
Issued by NWS San Angelo, TX

Home | Current Version | Previous Version | Text Only | Print | Product List | Glossary On
Versions: 1 2 3 4 5 6 7 8 9 10 11 12 13 14 15 16 17 18 19 20 21 22 23 24 25 26 27 28 29 30 31 32 33 34 35 36 37 38 39 40 41 42 43 44 45 46 47 48 49 50
473
ASUS44 KSJT 231210
RWRSJT
WEST CENTRAL TEXAS REGIONAL WEATHER ROUNDUP
NATIONAL WEATHER SERVICE SAN ANGELO TX
600 AM CST TUE JAN 23 2018

NOTE: "FAIR" INDICATES FEW OR NO CLOUDS BELOW 12,000 FEET WITH NO
SIGNIFICANT WEATHER AND/OR OBSTRUCTIONS TO VISIBILITY.

TXZ049-054-064>066-071>073-076>078-098-099-113-114-127-128-139-140-
154-155-168>170-231300
...LOCATIONS ACROSS WEST CENTRAL TEXAS...

CITY           SKY/WX    TMP DP  RH WIND       PRES   REMARKS
SAN ANGELO     CLOUDY    20  10  65 W5        30.23R WCI  13
ABILENE        CLOUDY    22  14  71 S5        30.23R WCI  16
DYESS AFB      CLOUDY    25   9  50 CALM      30.23R
JUNCTION       CLOUDY    22  14  71 W3        30.24R
SWEETWATER     CLOUDY    36   6  28 W3        30.25R
BROWNWOOD      CLOUDY    19  10  68 CALM      30.25R
COLEMAN        CLOUDY    30  12  47 W7        30.24R WCI  23
SONORA         CLOUDY    18   9  68 CALM      30.29R
OZONA          FAIR      18  10  73 N3        30.26S
BRADY          NOT AVBL
$$

TEXAS PANHANDLE/OKLAHOMA PANHANDLE

CITY           SKY/WX    TMP DP  RH WIND       PRES   REMARKS
AMARILLO       CLOUDY    24   4  42 NW3       30.19R
BORGER         CLOUDY    21   4  47 SW6       30.20R WCI  13
CANADIAN       CLEAR     17   8  69 CALM      30.21R
DALHART        CLEAR     15   2  56 NW8       30.19R WCI   4
DUMAS          CLOUDY    18   2  49 NW8       30.19R WCI   8
GUYMON         NOT AVBL
HEREFORD       CLOUDY    13   0  55 MISG      30.18S
PAMPA          CLOUDY    23   6  48 NW9       30.19R WCI  13
PERRYTON       CLOUDY    18   8  65 NW7       30.18R WCI   9
$$

SOUTHERN PANHANDLE/SOUTH PLAINS/ROLLING PLAINS

CITY           SKY/WX    TMP DP  RH WIND       PRES   REMARKS
LUBBOCK        CLOUDY    18  -2  41 NW3       30.19R
SNYDER         PTCLDY    29   6  37 N5        30.22R WCI  24
CHILDRESS      CLOUDY    28   4  35 N7        30.21S WCI  21
SEMINOLE       MOSUNNY   24   5  43 NW7       30.21R WCI  16
$$

PERMIAN BASIN

CITY           SKY/WX    TMP DP  RH WIND       PRES   REMARKS
MIDLAND        PTCLDY    23   7  50 N5        30.21R WCI  17
ODESSA         CLOUDY    30   6  36 W5        30.21R WCI  25
WINK           PTCLDY    18   2  49 N8        30.20R WCI   8
$$

FAR WEST/SOUTHWEST MOUNTAINS/TRANS PECOS

CITY           SKY/WX    TMP DP  RH WIND       PRES   REMARKS
ALPINE         CLOUDY    19   3  50 S6        30.26R WCI  11
DRYDEN           N/A    N/A N/A N/A N6        30.20R
EL PASO        PTCLDY    28   5  37 NE7       30.18R WCI  21
FORT STOCKTON  CLOUDY    35   6  29 SW12      30.20S WCI  27
GUADALUPE PASS PTCLDY    37   2  22 NE10      30.18S WCI  30
MARFA          CLOUDY    20   3  48 N10       30.20S WCI   9
PECOS          CLOUDY    22   4  47 W3        30.22S
$$

DALLAS/FORT WORTH METROPLEX

CITY           SKY/WX    TMP DP  RH WIND       PRES   REMARKS
DFW AIRPORT    MOCLDY    39  19  44 NW12      30.19R WCI  32
FTW MEACHAM    CLEAR     38  19  46 NW8       30.21R WCI  32
DAL-EXECUTIVE  CLEAR     60  21  22 NW9       30.19R
GRAND PRAIRIE  CLEAR     40  17  38 CALM      30.22R
ADDISON        CLEAR     36  25  64 NW5       30.22R WCI  32
MESQUITE       SUNNY     33  22  63 NW3       30.21R
LANCASTER      SUNNY     27  19  71 W3        30.22R
$$

NORTH CENTRAL TEXAS

CITY           SKY/WX    TMP DP  RH WIND       PRES   REMARKS
SHRMAN/DENISON SUNNY     30  19  64 W6        30.21R WCI  24
GAINESVILLE    CLEAR     32  17  52 N8        30.23R WCI  25
BRIDGEPORT     SUNNY     35  19  52 CALM      30.24R
DENTON         CLEAR     30  19  63 CALM      30.21R
WAXAHACHIE     SUNNY     35  21  58 W3        30.22R
GRANBURY       CLOUDY    25  18  75 W5        30.25R WCI  19
$$

WESTERN NORTH TEXAS

CITY           SKY/WX    TMP DP  RH WIND       PRES   REMARKS
WICHITA FALLS  CLEAR     29  13  51 NW10      30.22R WCI  20
VERNON         SUNNY     29   5  35 W5        30.23S WCI  24
BRECKENRIDGE   CLOUDY    26  16  65 CALM      30.24R
COMANCHE       CLOUDY    40  11  31 W6        30.23R WCI  35
$$

CENTRAL AND SOUTH CENTRAL TEXAS

CITY           SKY/WX    TMP DP  RH WIND       PRES   REMARKS
AUSTIN/BERGSTM CLOUDY    29  26  89 W5        30.24R WCI  24
WACO           CLEAR     25  19  78 SW3       30.23R
HILLSBORO      CLOUDY    33  20  59 CALM      30.21R
TEMPLE         CLOUDY    23  19  85 NW6       30.24R WCI  16
KILLEEN-GRAY   CLOUDY    38  14  36 NW5       30.22R WCI  35
FORT HOOD      CLOUDY    39  16  38 NW5       30.20R WCI  36
GEORGETOWN     CLEAR     32  22  66 CALM      30.25R
LAGO VISTA     FAIR      38  21  50 MISG      30.23R
SAN MARCOS     CLOUDY    30  24  78 NW6       30.25R WCI  24
NEW BRAUNFELS  PTCLDY    31  24  75 CALM      30.23R
RANDOLPH AFB   PTCLDY    34  24  66 NW10      30.23R WCI  26
SAN ANTONIO    CLOUDY    34  22  61 NW5       30.24R WCI  30
STINSON        CLOUDY    32  27  81 W3        30.22R
PLEASANTON     NOT AVBL
LA GRANGE      NOT AVBL
GIDDINGS       CLOUDY    32  27  81 CALM      30.23R
$$

EAST TEXAS

CITY           SKY/WX    TMP DP  RH WIND       PRES   REMARKS
PARIS          CLEAR     35  22  58 NW9       30.17R WCI  28
CLARKSVILLE    NOT AVBL
TYLER          CLEAR     38  23  55 NW5       30.18R WCI  34
LONGVIEW       CLEAR     38  26  62 NW3       30.17R
PALESTINE      SUNNY     28  27  94 CALM      30.22R
NACOGDOCHES    CLEAR     25  23  92 CALM      30.21R
$$

TEXAS HILL COUNTRY AND EDWARDS PLATEAU

CITY           SKY/WX    TMP DP  RH WIND       PRES   REMARKS
LLANO          CLOUDY    23  18  80 CALM      30.28R
HORSESHOE BAY  FAIR      25  22  85 CALM      30.24R
KERRVILLE      CLOUDY    25  19  76 W3        30.24R
FREDERICKSBRG  CLOUDY    24  16  71 W3        30.24R
ROCKSPRINGS      N/A    N/A N/A N/A MISG        N/A
HONDO          CLOUDY    31  19  61 N7        30.24R WCI  24
UVALDE         CLOUDY    35  20  55 CALM      30.25R
DEL RIO        CLOUDY    29  26  89 NW3       30.24R
$$

SOUTHEAST TEXAS

CITY           SKY/WX    TMP DP  RH WIND       PRES   REMARKS
COLLEGE STN    CLOUDY    35  26  69 CALM      30.23R
CALDWELL       CLOUDY    37  20  50 NW5       30.24R WCI  34
CROCKETT       SUNNY     27  25  93 CALM      30.24R
BRENHAM        CLOUDY    34  29  84 CALM      30.23S
HUNTSVILLE     CLOUDY    36  26  67 CALM      30.22R
CONROE         PTCLDY    28  28 100 CALM      30.22R
HOUSTON BUSH   PTCLDY    40  31  70 NW3       30.22R
HOUSTON HOBBY  FAIR      42  34  73 W5        30.22R WCI  39
PERLAND        FAIR      37  36  96 CALM      30.24R
WHARTON        CLOUDY    38  33  80 CALM      30.24R
$$

THE UPPER TEXAS COAST

CITY           SKY/WX    TMP DP  RH WIND       PRES   REMARKS
ORANGE         FAIR      36  36 100 NW3       30.21R
PORT ARTHUR    FAIR      37  32  82 NW5       30.20R WCI  33
GALVESTON      FAIR      50  40  68 NW5       30.22R
ANGLETON       FAIR      38  33  82 NW6       30.22R WCI  33
BAY CITY       FAIR      42  33  71 CALM      30.22R
$$

TEXAS COASTAL BEND, RIO GRANDE PLAINS DEEP SOUTH TEXAS

CITY           SKY/WX    TMP DP  RH WIND       PRES   REMARKS
VICTORIA       CLEAR     34  28  79 NW9       30.24R WCI  27
BEEVILLE       FAIR      41  27  57 N7        30.23R WCI  36
ROCKPORT       PTCLDY    44  36  73 NW5       30.23R
PORT ARANSAS   NOT AVBL
PORT LAVACA    MOSUNNY   37  29  72 NW5       30.23R WCI  34
CORPUS CHRISTI CLOUDY    40  28  62 N3        30.23R
KINGSVILLE NAS CLOUDY    39  30  70 N7        30.23R WCI  34
COTULLA        CLOUDY    34  28  79 N3        30.25R
LAREDO         CLOUDY    39  31  72 S6        30.24R WCI  35
BROWNSVILLE    FAIR      52  44  74 N7        30.19R
PORT ISABEL    FAIR      49  45  86 N7        30.18S
HEBBRONVILLE   CLOUDY    41  25  52 N6        30.23R WCI  37
MCALLEN        PTCLDY    52  34  50 N7        30.21R
WESLACO        PTCLDY    45  35  68 CALM      30.20R
FALFURRIAS     CLOUDY    43  31  62 CALM      30.22S
EDINBURG       MOSUNNY   43  34  71 N3        30.22R
$$




USA.gov is the U.S. government's official web portal to all federal, state and local government web resources and services.